EW5383 Weather Reports


Display with metric or nautical units.
time (UTC)temp
F
wind
direction
speed
MPH
gust
MPH
rain 1hr
in
rain 24hr
in
rain mn
in
humidity
%
barometer
mb
20260509090016 0 0.0 0.0 0.00 0.00 0.00 1012.7
20260509084522 0 0.0 0.0 0.00 0.00 0.00 1012.8
20260509083007 0 0.0 0.0 0.00 0.00 0.00 1012.9
20260509081502 0 0.0 0.0 0.00 0.00 0.00 1013.0
20260509080100 0 0.0 0.0 0.00 0.00 0.00 1012.9
20260509074554 0 0.0 0.0 0.00 0.00 0.00 1013.0
20260509073049 0 0.0 0.0 0.00 0.00 0.00 1013.2
20260509071545 0 0.0 0.0 0.00 0.00 0.00 1013.3
20260509070044 0 0.0 0.0 0.00 0.00 0.00 1013.5
20260509064536 0 0.0 0.0 0.00 0.00 0.00 1013.6
20260509063032 0 0.0 0.0 0.00 0.00 0.00 1013.7
20260509061528 0 0.0 0.0 0.00 0.00 0.00 1013.9
20260509060024 0 0.0 0.0 0.00 0.00 0.00 1014.1
20260509054519 0 0.0 0.0 0.00 0.00 0.00 1014.1
20260509053021 0 0.0 0.0 0.00 0.00 0.00 1014.2
20260509051510 0 0.0 0.0 0.00 0.00 0.00 1014.3
20260509050006 0 0.0 0.0 0.00 0.00 0.00 1014.3
20260509044502 0 0.0 0.0 0.00 0.00 0.00 1014.5
20260509043101 0 0.0 0.0 0.00 0.00 0.00 1014.5
20260509041556 0 0.0 0.0 0.00 0.00 0.00 1014.5
20260509040051 77 44 0.0 0.0 0.00 0.00 0.00 1 1014.6
20260509034549 78 41 0.0 0.0 0.00 0.00 0.00 1 1014.6
20260509033042 77 1 0.0 0.0 0.00 0.00 0.00 1 1014.7
20260509031535 77 1 0.0 0.0 0.00 0.00 0.00 1 1014.7
20260509030031 77 1 0.0 0.0 0.00 0.00 0.00 1 1014.6
20260509024528 77 1 0.0 0.0 0.00 0.00 0.00 1 1014.5
20260509023024 77 1 0.0 0.0 0.00 0.00 0.00 1 1014.4
20260509021518 77 1 0.0 0.0 0.00 0.00 0.00 1 1014.3
20260509020015 78 1 0.0 0.0 0.00 0.00 0.00 1 1014.1
20260509014530 78 1 0.0 1.0 0.00 0.00 0.00 1 1013.9
20260509013004 78 320 0.0 0.0 0.00 0.00 0.00 7 1013.6
20260509011601 78 357 0.0 0.0 0.00 0.00 0.00 27 1013.5
20260509010056 78 357 0.0 0.0 0.00 0.00 0.00 41 1013.4
20260509004554 79 357 0.0 0.0 0.00 0.00 0.00 48 1013.2
20260509003048 80 354 0.0 0.0 0.00 0.00 0.00 56 1013.1
20260509001543 81 354 0.0 0.0 0.00 0.00 0.00 62 1012.9
20260509000038 82 34 0.0 0.0 0.00 0.00 0.00 64 1012.7
20260508234535 83 18 0.0 1.0 0.00 0.00 0.00 62 1012.6
20260508233037 84 47 0.0 1.0 0.00 0.00 0.00 61 1012.5
20260508231527 85 348 0.0 0.0 0.00 0.00 0.00 59 1012.4
20260508230021 87 13 0.0 1.0 0.00 0.00 0.00 58 1012.2
20260508224516 88 40 0.0 0.0 0.00 0.00 0.00 56 1011.9
20260508223021 89 27 0.0 0.0 0.00 0.00 0.00 54 1011.9
20260508221507 90 5 0.0 0.0 0.00 0.00 0.00 53 1011.8
20260508220003 92 42 0.0 0.0 0.00 0.00 0.00 51 1012.0
20260508214559 92 30 0.0 0.0 0.00 0.00 0.00 51 1012.0
20260508213055 93 271 0.0 1.0 0.00 0.00 0.00 50 1011.9
20260508211550 94 71 0.0 0.0 0.00 0.00 0.00 49 1011.9
20260508210045 94 316 0.0 0.0 0.00 0.00 0.00 50 1011.9
20260508204549 95 308 0.0 0.0 0.00 0.00 0.00 52 1012.0
20260508203048 95 80 0.0 1.0 0.00 0.00 0.00 51 1012.1
20260508201533 95 258 0.0 0.0 0.00 0.00 0.00 50 1012.2
20260508200030 95 226 0.0 1.0 0.00 0.00 0.00 52 1012.6
20260508194523 94 21 0.0 0.0 0.00 0.00 0.00 52 1012.8
20260508193019 94 25 0.0 0.0 0.00 0.00 0.00 53 1013.1
20260508191519 95 89 0.0 0.0 0.00 0.00 0.00 52 1013.4
20260508190017 95 165 0.0 0.0 0.00 0.00 0.00 53 1013.5
20260508184509 95 50 0.0 1.0 0.00 0.00 0.00 54 1013.6
20260508183004 95 75 0.0 0.0 0.00 0.00 0.00 55 1014.0
20260508181600 94 21 0.0 1.0 0.00 0.00 0.00 56 1014.2
20260508180059 93 13 0.0 1.0 0.00 0.00 0.00 56 1014.4
20260508174609 93 284 0.0 0.0 0.00 0.00 0.00 58 1014.5
20260508173049 91 79 0.0 1.0 0.00 0.00 0.00 61 1014.7
20260508171544 91 18 0.0 0.0 0.00 0.00 0.00 59 1014.8
20260508170045 90 31 0.0 0.0 0.00 0.00 0.00 60 1014.9
20260508164537 92 41 0.0 0.0 0.00 0.00 0.00 59 1015.1
20260508163032 90 51 0.0 0.0 0.00 0.00 0.00 60 1015.3
20260508161526 90 328 0.0 0.0 0.00 0.00 0.00 61 1015.5
20260508160021 88 56 0.0 2.0 0.00 0.00 0.00 61 1015.7
20260508154521 88 23 0.0 2.0 0.00 0.00 0.00 60 1015.9
20260508153014 87 355 0.0 3.0 0.00 0.00 0.00 58 1016.1
20260508151508 87 35 0.0 1.0 0.00 0.00 0.00 59 1016.2
20260508150005 86 48 0.0 0.0 0.00 0.00 0.00 59 1016.1
20260508144600 85 16 0.0 3.0 0.00 0.00 0.00 55 1016.0
20260508143059 86 9 0.0 0.0 0.00 0.00 0.00 58 1016.1
20260508141551 87 172 0.0 0.0 0.00 0.00 0.00 46 1016.1
20260508140054 85 49 0.0 1.0 0.00 0.00 0.00 41 1016.2
20260508134547 83 51 0.0 0.0 0.00 0.00 0.00 6 1016.3
20260508133037 84 54 0.0 0.0 0.00 0.00 0.00 15 1016.3
20260508131537 85 43 0.0 0.0 0.00 0.00 0.00 1 1016.1
20260508130040 83 52 0.0 0.0 0.00 0.00 0.00 1 1016.1
20260508124533 81 52 0.0 0.0 0.00 0.00 0.00 1 1016.0
20260508123027 79 51 0.0 0.0 0.00 0.00 0.00 1 1015.8
20260508121515 78 51 0.0 0.0 0.00 0.00 0.00 1 1015.7
20260508120011 75 51 0.0 0.0 0.00 0.00 0.00 1 1015.6
20260508114506 73 51 0.0 0.0 0.00 0.00 0.00 1 1015.3
20260508113002 70 52 0.0 0.0 0.00 0.00 0.00 1 1015.2
20260508111607 69 52 0.0 0.0 0.00 0.00 0.00 1 1014.9
20260508110055 0 0.0 0.0 0.00 0.00 0.00 1014.6
20260508104555 0 0.0 0.0 0.00 0.00 0.00 1014.4
20260508103048 0 0.0 0.0 0.00 0.00 0.00 1014.4
20260508101546 0 0.0 0.0 0.00 0.00 0.00 1014.2
20260508100035 0 0.0 0.0 0.00 0.00 0.00 1014.1
20260508094543 0 0.0 0.0 0.00 0.00 0.00 1013.9
20260508093029 0 0.0 0.0 0.00 0.00 0.00 1013.8
20260508091539 0 0.0 0.0 0.00 0.00 0.00 1013.8